Погода Бельцы

Погода Бельцы : погода сейчас, прогноз погоды и архив. Всё, что Вы хотите узнать о погоде Бельцы!

Поиск расширенной информации на нашем сайте:

Другие новости

Новости СМИ2

Главная страница сайта

Новости сайта

03.07.2017

Напоминаем, что на нашем специализированном сайте Метеоцентр.Азия вы можете получить высокодетализированные автоматические прогнозы погоды по пунктам России, СНГ и мира в авиационном формате (включающие направление и скорость ветра, видимость, явления погоды, количество и форму облачности, нижнюю и верхнюю границу облачности).


Погода Бельцы - сегодня

Время (UTC), дата Ветер
(°,м/с) 
Видим.   Явления Облачность Т
(°С)
Тd
(°С)
f(%) Тe
(°С)
Pmin
(гПа)
dP
(гПа)
Po
(мм)
O2
(г/м3)
Тmin Tmax R s Состояние
почвы
06 20.07.17 тихо ()   10 км    ясно 
+22.8 +13 54 +28  1016.5  -0.1  749  276  +13.6         
09 20.07.17 160 (Ю) 10 км    ясно 
+29.7 +8.7 27 +30  1015.1  -1  748  270           
12 20.07.17 150 (ЮВ) 10 км    3/3 1000 м 
[Cu hum]
+30.9 +7.4 23 +31  1013.6  -1.4  747  269           
15 20.07.17 180 (Ю) 10 км    ясно 
+31.1 +8.8 25 +31  1012.2  -1.3  746  268           
18 20.07.17 тихо ()   10 км    6/3 600 м средняя, верхняя 
[Sc|Ac trans|Ci fib]
+25 +10.8 41 +27  1013  0.4  746  273    +32.3       
21 20.07.17 тихо ()   10 км    4/0 верхняя 
[Ci fib]
+20 +9.9 52 +21  1014.1  0.8  747  279           
00 21.07.17 тихо ()   10 км    5/0 верхняя 
[Ci fib]
+16.3 +10.6 69 +18  1014.4  0.1  747  282           
03 21.07.17 тихо ()   10 км    ясно 
+15.4 +12 80 +19  1014.7  0.2  747  283           
06 21.07.17 130 (ЮВ) 10 км    ясно 
+24.8 +13.4 49 +31  1014.6  0.5  747  273  +15.3         
09 21.07.17 180 (Ю) 10 км    ясно 
+31.5 +11.8 30 +35  1014.2  747  268           
12 21.07.17 190 (Ю) 10 км    3/0 верхняя 
[Ci fib]
+33 +12.1 28 +37  1013.3  -0.8  747  266           
15 21.07.17 150 (ЮВ) 10 км    3/3 1000 м 
[Cu hum]
+32.7 +10.7 26 +35  1012.2  -1.1  746  267           
18 21.07.17 140 (ЮВ) 10 км    3/3 630 м 
[Sc]
+27.4 +9.7 33 +28  1013.5  0.9  747  272    +34       
21 21.07.17 тихо ()   10 км    ясно 
+22 +10.2 47 +24  1014.4  0.6  747  277           
00 22.07.17 тихо ()   10 км    4/0 средняя 
[Ac trans]
+19.1 +10.7 58 +21  1013.9  -0.7  747  279           
03 22.07.17 тихо ()   10 км    3/3 600 м 
[Sc]
+18.2 +11.3 64 +21  1013.9  747  280  +18         
06 22.07.17 200 (Ю) 10 км    4/0 300 м верхняя 
[Ci fib]
+25 +13.9 50 +32  1014  0.5  747  273  +18         
09 22.07.17 300 (СЗ) 10 км    8/3 600 м кучево-дожд., верхняя 
[Cb cap|Cs]
+28 +16.3 49 +39  1014.2  0.4  747  270           
12 22.07.17 250 (З) 10 км    6/3 600 м кучево-дожд., верхняя 
[Cb cap|Ci fib]
+30.4 +15.7 41 +40  1013.5  -0.5  747  268           
15 22.07.17 280 (З) 10 км    3/0 верхняя 
[Ci fib]
+30.2 +16.3 43 +41  1013.1  -0.4  747  267           
18 22.07.17 тихо ()   10 км    3/3 600 м кучево-дожд. 
[Cb cap]
+26.3 +15.1 50 +35  1014.8  1.4  748  272    +31       
21 22.07.17 310 (СЗ) 10 км    3/0 верхняя 
[Ci fib]
+22.4 +14.8 62 +31  1016.2  1.1  748  276           
00 23.07.17 330 (СЗ) 10 км    ясно 
+20.2 +15 72 +29  1016.1  -0.2  748  278           
03 23.07.17 310 (СЗ) 10 км    4/4 600 м кучево-дожд. 
[Cb cap]
+18.6 +16 85 +31  1016.5  0.3  749  279           
06 23.07.17 050 (СВ) 10 км    5/3 600 м верхняя 
[Sc|Ci fib]
+23.9 +17.6 68 +37  1016.6  0.4  749  273  +18.2         
Время (UTC), дата Ветер
(°,м/с) 
Видим.   Явления Облачность Т
(°С)
Тd
(°С)
f(%) Тe
(°С)
Pmin
(гПа)
dP
(гПа)
Po
(мм)
O2
(г/м3)
Тmin Tmax R s Состояние
почвы

Для получения пояснительной информации подведите курсор к названию столбца.

ПОГОДА Бельцы - архив

Всё, что Вы хотите узнать о погоде Бельцы - удобно и подробно!

Выберите нужную дату (начиная с 1 января 2015* года) и нажмите кнопку "Найти".
Будут отображены архивные сводки погоды по пункту Бельцы, начиная с указанной даты.


Отображать данные в формате CSV (для использования в таблицах Excel)


Внимание! Наш архив погоды предназначен исключительно для личного некоммерческого использования в познавательных целях. Если Вам необходимы официальные справки о состоянии погоды (для производственных, юридических, коммерческих и т.п. целей), обращайтесь в органы Росгидромета.

*Примечание: данная дата относится к архиву по метеостанциям СССР (Россия, СНГ, Балтия).
Архив по метеостанциям Зарубежной Европы и Азии (кроме Китая) хранится 10 дней, по другим регионам земного шара (Китай, Африка, Америка, Австралия, Океания) - 1 день.

Бельцы - район местоположения метеостанции


Название, широта, долгота, высота метеостанции:
Бельцы 47.8°ш. 27.9°д. 102 м над ур. моря [Молдавия]

Дополнительная информация

В oтличие oт бoльшинства пoгoдных сайтoв мы публикуем пoдрoбную метеoинфoрмацию в детальнoм прoфессиoнальнoм фoрмате.

Характеристики температуры и влажнoсти вoздуха измеряются на высoте 2 м в тени вдали oт зданий и деревьев.
Скoрoсть ветра измеряется на высoте 10 м (на урoвне рoста челoвека скoрoсть ветра ниже в 1.5-2 раза). Если метеoстанция нахoдится в гoрoде или в лесу, тo скoрoсть ветра занижена на 2-4 м/с пo сравнению с oткрытым местoм. Скoрoсть ветра над акватoриями крупных рек и oзёр, а также на вершинах хoлмoв на 2-5 м/с выше, чем в oбычных услoвиях.
Атмoсфернoе давление в разных тoчках местнoсти мoжет значительнo oтличаться oт давления на метеoстанции, в зависимoсти oт услoвий рельефа (при пoдъёме на 10 м давление пoнижается примернo на 1 мм рт.ст.).